| time (UTC) | temp F | wind direction | speed MPH | gust MPH | rain 1hr in | rain 24hr in | rain mn in | humidity % | barometer mb |
| 20260504010222 | 52 | 195 | 0.0 | 2.0 | 0.00 | 0.00 | 0.00 | 47 | 1012.8 |
| 20260504005723 | 53 | 212 | 0.0 | 3.0 | 0.00 | 0.00 | 0.00 | 46 | 1012.7 |
| 20260504005222 | 53 | 188 | 0.0 | 3.0 | 0.00 | 0.00 | 0.00 | 46 | 1012.8 |
| 20260504004723 | 53 | 179 | 0.0 | 3.0 | 0.00 | 0.00 | 0.00 | 45 | 1012.7 |
| 20260504004453 | 53 | 245 | 0.0 | 5.0 | 0.00 | 0.00 | 0.00 | 45 | 1012.8 |
| 20260504003722 | 53 | 224 | 0.0 | 5.0 | 0.00 | 0.00 | 0.00 | 44 | 1012.7 |
| 20260504003222 | 54 | 223 | 0.0 | 3.0 | 0.00 | 0.00 | 0.00 | 44 | 1012.8 |
| 20260504002722 | 54 | 266 | 0.0 | 4.0 | 0.00 | 0.00 | 0.00 | 44 | 1012.7 |
| 20260504002455 | 54 | 197 | 0.0 | 4.0 | 0.00 | 0.00 | 0.00 | 45 | 1012.7 |
| 20260504001723 | 54 | 192 | 0.0 | 7.0 | 0.00 | 0.00 | 0.00 | 44 | 1012.7 |
| 20260504001223 | 54 | 187 | 0.0 | 7.0 | 0.00 | 0.00 | 0.00 | 43 | 1012.7 |
| 20260504000723 | 55 | 254 | 0.0 | 3.0 | 0.00 | 0.00 | 0.00 | 43 | 1012.6 |
| 20260504000223 | 55 | 239 | 0.0 | 3.0 | 0.00 | 0.00 | 0.00 | 43 | 1012.6 |
| 20260503235723 | 55 | 249 | 0.0 | 6.0 | 0.00 | 0.00 | 0.00 | 42 | 1012.7 |
| 20260503235454 | 55 | 218 | 0.0 | 6.0 | 0.00 | 0.00 | 0.00 | 42 | 1012.7 |
| 20260503234722 | 55 | 163 | 0.0 | 2.0 | 0.00 | 0.00 | 0.00 | 42 | 1012.7 |
| 20260503234453 | 55 | 245 | 0.0 | 3.0 | 0.00 | 0.00 | 0.00 | 42 | 1012.7 |
| 20260503233955 | 55 | 261 | 0.0 | 6.0 | 0.00 | 0.00 | 0.00 | 40 | 1012.7 |
| 20260503233222 | 56 | 196 | 0.0 | 6.0 | 0.00 | 0.00 | 0.00 | 42 | 1012.6 |
| 20260503232722 | 56 | 179 | 0.0 | 3.0 | 0.00 | 0.00 | 0.00 | 40 | 1012.6 |
| 20260503232222 | 56 | 241 | 0.0 | 9.0 | 0.00 | 0.00 | 0.00 | 40 | 1012.7 |
| 20260503231953 | 56 | 240 | 1.0 | 9.0 | 0.00 | 0.00 | 0.00 | 39 | 1012.6 |
| 20260503231223 | 56 | 256 | 0.0 | 5.0 | 0.00 | 0.00 | 0.00 | 37 | 1012.6 |
| 20260503230722 | 56 | 145 | 0.0 | 5.0 | 0.00 | 0.00 | 0.00 | 41 | 1012.7 |
| 20260503230221 | 57 | 130 | 1.0 | 8.0 | 0.00 | 0.00 | 0.00 | 38 | 1012.7 |
| 20260503225953 | 57 | 276 | 1.0 | 8.0 | 0.00 | 0.00 | 0.00 | 36 | 1012.7 |
| 20260503225222 | 57 | 273 | 1.0 | 10.0 | 0.00 | 0.00 | 0.00 | 38 | 1012.7 |
| 20260503224722 | 57 | 247 | 1.0 | 10.0 | 0.00 | 0.00 | 0.00 | 39 | 1012.7 |
| 20260503224222 | 57 | 279 | 2.0 | 10.0 | 0.00 | 0.00 | 0.00 | 38 | 1012.8 |
| 20260503223722 | 57 | 215 | 2.0 | 11.0 | 0.00 | 0.00 | 0.00 | 36 | 1012.9 |
| 20260503223223 | 57 | 238 | 2.0 | 11.0 | 0.00 | 0.00 | 0.00 | 35 | 1012.8 |
| 20260503222718 | 57 | 262 | 2.0 | 11.0 | 0.00 | 0.00 | 0.00 | 36 | 1013.0 |
| 20260503222218 | 57 | 113 | 2.0 | 16.0 | 0.00 | 0.00 | 0.00 | 35 | 1012.8 |
| 20260503221727 | 58 | 309 | 1.0 | 8.0 | 0.00 | 0.00 | 0.00 | 35 | 1012.8 |
| 20260503221718 | 58 | 226 | 1.0 | 16.0 | 0.00 | 0.00 | 0.00 | 34 | 1012.8 |
| 20260503220718 | 58 | 223 | 2.0 | 12.0 | 0.00 | 0.00 | 0.00 | 35 | 1012.8 |
| 20260503220218 | 58 | 257 | 2.0 | 12.0 | 0.00 | 0.00 | 0.00 | 36 | 1012.8 |
| 20260503215718 | 58 | 302 | 2.0 | 8.0 | 0.00 | 0.00 | 0.00 | 36 | 1012.8 |
| 20260503215218 | 58 | 165 | 3.0 | 10.0 | 0.00 | 0.00 | 0.00 | 33 | 1012.8 |
| 20260503214718 | 58 | 297 | 3.0 | 10.0 | 0.00 | 0.00 | 0.00 | 34 | 1012.8 |
| 20260503214216 | 58 | 301 | 2.0 | 10.0 | 0.00 | 0.00 | 0.00 | 33 | 1012.7 |
| 20260503213716 | 57 | 184 | 2.0 | 16.0 | 0.00 | 0.00 | 0.00 | 34 | 1012.8 |
| 20260503213215 | 57 | 302 | 2.0 | 16.0 | 0.00 | 0.00 | 0.00 | 35 | 1012.7 |
| 20260503212716 | 58 | 338 | 2.0 | 11.0 | 0.00 | 0.00 | 0.00 | 33 | 1012.7 |
| 20260503212216 | 59 | 226 | 2.0 | 11.0 | 0.00 | 0.00 | 0.00 | 32 | 1012.6 |
| 20260503211716 | 59 | 296 | 3.0 | 12.0 | 0.00 | 0.00 | 0.00 | 34 | 1012.6 |
| 20260503211215 | 58 | 264 | 3.0 | 12.0 | 0.00 | 0.00 | 0.00 | 32 | 1012.6 |
| 20260503210716 | 58 | 279 | 3.0 | 17.0 | 0.00 | 0.00 | 0.00 | 32 | 1012.6 |
| 20260503210215 | 59 | 176 | 3.0 | 17.0 | 0.00 | 0.00 | 0.00 | 32 | 1012.6 |
| 20260503205715 | 59 | 264 | 1.0 | 11.0 | 0.00 | 0.00 | 0.00 | 32 | 1012.6 |
| 20260503205447 | 58 | 234 | 3.0 | 16.0 | 0.00 | 0.00 | 0.00 | 34 | 1012.6 |
| 20260503204716 | 59 | 199 | 3.0 | 16.0 | 0.00 | 0.00 | 0.00 | 31 | 1012.7 |
| 20260503204216 | 59 | 56 | 3.0 | 11.0 | 0.00 | 0.00 | 0.00 | 32 | 1012.8 |
| 20260503203715 | 59 | 184 | 2.0 | 11.0 | 0.00 | 0.00 | 0.00 | 31 | 1012.8 |
| 20260503203216 | 59 | 205 | 1.0 | 9.0 | 0.00 | 0.00 | 0.00 | 34 | 1012.8 |
| 20260503202715 | 59 | 198 | 2.0 | 9.0 | 0.00 | 0.00 | 0.00 | 31 | 1012.9 |
| 20260503202216 | 59 | 252 | 2.0 | 7.0 | 0.00 | 0.00 | 0.00 | 32 | 1013.0 |
| 20260503201716 | 59 | 268 | 3.0 | 12.0 | 0.00 | 0.00 | 0.00 | 34 | 1013.1 |
| 20260503201217 | 59 | 139 | 3.0 | 14.0 | 0.00 | 0.00 | 0.00 | 35 | 1013.1 |
| 20260503200717 | 59 | 243 | 4.0 | 14.0 | 0.00 | 0.00 | 0.00 | 34 | 1013.2 |
| 20260503200448 | 59 | 255 | 5.0 | 17.0 | 0.00 | 0.00 | 0.00 | 32 | 1013.3 |
| 20260503195717 | 58 | 354 | 5.0 | 17.0 | 0.00 | 0.00 | 0.00 | 33 | 1013.3 |
| 20260503195216 | 58 | 194 | 4.0 | 11.0 | 0.00 | 0.00 | 0.00 | 33 | 1013.4 |
| 20260503194716 | 59 | 245 | 3.0 | 11.0 | 0.00 | 0.00 | 0.00 | 34 | 1013.5 |
| 20260503194216 | 59 | 284 | 3.0 | 11.0 | 0.00 | 0.00 | 0.00 | 33 | 1013.5 |
| 20260503193715 | 58 | 186 | 3.0 | 14.0 | 0.00 | 0.00 | 0.00 | 34 | 1013.6 |
| 20260503193216 | 58 | 333 | 3.0 | 14.0 | 0.00 | 0.00 | 0.00 | 31 | 1013.7 |
| 20260503192715 | 58 | 285 | 3.0 | 11.0 | 0.00 | 0.00 | 0.00 | 34 | 1013.8 |
| 20260503192216 | 58 | 296 | 3.0 | 11.0 | 0.00 | 0.00 | 0.00 | 33 | 1013.8 |
| 20260503191715 | 59 | 341 | 3.0 | 11.0 | 0.00 | 0.00 | 0.00 | 35 | 1013.8 |
| 20260503191216 | 58 | 221 | 3.0 | 12.0 | 0.00 | 0.00 | 0.00 | 35 | 1014.1 |
| 20260503190715 | 58 | 352 | 4.0 | 12.0 | 0.00 | 0.00 | 0.00 | 35 | 1014.2 |
| 20260503190229 | 58 | 290 | 4.0 | 15.0 | 0.00 | 0.00 | 0.00 | 35 | 1014.3 |
| 20260503185716 | 58 | 338 | 4.0 | 15.0 | 0.00 | 0.00 | 0.00 | 36 | 1014.4 |
| 20260503185216 | 57 | 211 | 3.0 | 13.0 | 0.00 | 0.00 | 0.00 | 35 | 1014.4 |
| 20260503184716 | 57 | 227 | 3.0 | 12.0 | 0.00 | 0.00 | 0.00 | 36 | 1014.6 |
| 20260503184216 | 57 | 75 | 3.0 | 10.0 | 0.00 | 0.00 | 0.00 | 36 | 1014.6 |
| 20260503183716 | 57 | 304 | 4.0 | 11.0 | 0.00 | 0.00 | 0.00 | 36 | 1014.7 |
| 20260503183216 | 58 | 322 | 4.0 | 11.0 | 0.00 | 0.00 | 0.00 | 39 | 1014.8 |
| 20260503182716 | 57 | 258 | 3.0 | 11.0 | 0.00 | 0.00 | 0.00 | 35 | 1014.8 |
| 20260503182216 | 57 | 308 | 3.0 | 12.0 | 0.00 | 0.00 | 0.00 | 36 | 1014.7 |
| 20260503181716 | 56 | 249 | 5.0 | 15.0 | 0.00 | 0.00 | 0.00 | 37 | 1014.9 |
| 20260503181447 | 56 | 236 | 5.0 | 15.0 | 0.00 | 0.00 | 0.00 | 37 | 1014.8 |
| 20260503180716 | 57 | 283 | 3.0 | 14.0 | 0.00 | 0.00 | 0.00 | 38 | 1014.9 |
| 20260503180216 | 56 | 236 | 4.0 | 15.0 | 0.00 | 0.00 | 0.00 | 38 | 1015.0 |
| 20260503175716 | 57 | 221 | 3.0 | 15.0 | 0.00 | 0.00 | 0.00 | 36 | 1015.0 |
| 20260503175216 | 56 | 172 | 4.0 | 15.0 | 0.00 | 0.00 | 0.00 | 38 | 1015.0 |
| 20260503174716 | 56 | 315 | 5.0 | 15.0 | 0.00 | 0.00 | 0.00 | 39 | 1015.0 |
| 20260503174216 | 56 | 266 | 4.0 | 14.0 | 0.00 | 0.00 | 0.00 | 37 | 1015.1 |
| 20260503173715 | 56 | 294 | 4.0 | 15.0 | 0.00 | 0.00 | 0.00 | 40 | 1015.3 |
| 20260503173215 | 56 | 328 | 4.0 | 15.0 | 0.00 | 0.00 | 0.00 | 38 | 1015.3 |
| 20260503172716 | 55 | 13 | 3.0 | 12.0 | 0.00 | 0.01 | 0.00 | 39 | 1015.2 |
| 20260503172216 | 55 | 242 | 2.0 | 10.0 | 0.00 | 0.01 | 0.00 | 37 | 1015.3 |
| 20260503171716 | 55 | 278 | 3.0 | 11.0 | 0.00 | 0.01 | 0.00 | 38 | 1015.4 |
| 20260503171215 | 55 | 260 | 3.0 | 11.0 | 0.00 | 0.01 | 0.00 | 38 | 1015.4 |
| 20260503170716 | 55 | 292 | 3.0 | 12.0 | 0.00 | 0.01 | 0.00 | 36 | 1015.5 |
| 20260503170215 | 55 | 283 | 3.0 | 12.0 | 0.00 | 0.01 | 0.00 | 38 | 1015.5 |
| 20260503160217 | 52 | 191 | 4.0 | 13.0 | 0.00 | 0.01 | 0.00 | 39 | 1016.1 |
| 20260503150716 | 50 | 270 | 4.0 | 12.0 | 0.00 | 0.01 | 0.00 | 35 | 1016.4 |
| 20260503150448 | 50 | 237 | 2.0 | 10.0 | 0.00 | 0.01 | 0.00 | 36 | 1016.2 |
| 20260503140214 | 47 | 168 | 2.0 | 7.0 | 0.00 | 0.01 | 0.00 | 45 | 1016.5 |
| 20260503130715 | 43 | 311 | 3.0 | 9.0 | 0.00 | 0.01 | 0.00 | 59 | 1016.8 |
| 20260503130446 | 43 | 232 | 2.0 | 12.0 | 0.00 | 0.01 | 0.00 | 61 | 1016.8 |
| 20260503120215 | 38 | 274 | 1.0 | 4.0 | 0.00 | 0.01 | 0.00 | 72 | 1016.4 |
| 20260503110713 | 34 | 191 | 0.0 | 0.0 | 0.00 | 0.01 | 0.00 | 85 | 1016.0 |
| 20260503110213 | 33 | 218 | 0.0 | 0.0 | 0.00 | 0.01 | 0.00 | 85 | 1016.0 |
| 20260503100214 | 33 | 280 | 0.0 | 0.0 | 0.00 | 0.04 | 0.00 | 85 | 1015.4 |
| 20260503090444 | 33 | 293 | 0.0 | 0.0 | 0.00 | 0.05 | 0.00 | 85 | 1015.5 |
| 20260503081214 | 33 | 293 | 0.0 | 0.0 | 0.00 | 0.05 | 0.00 | 84 | 1015.6 |
| 20260503080713 | 33 | 293 | 0.0 | 0.0 | 0.00 | 0.05 | 0.00 | 84 | 1015.4 |
| 20260503080214 | 33 | 293 | 0.0 | 0.0 | 0.00 | 0.05 | 0.00 | 83 | 1015.5 |
| 20260503072713 | 34 | 293 | 0.0 | 0.0 | 0.00 | 0.05 | 0.00 | 82 | 1015.4 |
| 20260503072213 | 34 | 293 | 0.0 | 0.0 | 0.00 | 0.05 | 0.00 | 81 | 1015.4 |
| 20260503071713 | 34 | 293 | 0.0 | 0.0 | 0.00 | 0.05 | 0.00 | 81 | 1015.4 |
| 20260503071214 | 34 | 293 | 0.0 | 0.0 | 0.00 | 0.05 | 0.00 | 80 | 1015.4 |
| 20260503070714 | 34 | 293 | 0.0 | 0.0 | 0.00 | 0.05 | 0.00 | 80 | 1015.4 |
| 20260503070213 | 34 | 293 | 0.0 | 0.0 | 0.00 | 0.05 | 0.00 | 80 | 1015.3 |
| 20260503054714 | 37 | 293 | 0.0 | 0.0 | 0.00 | 0.05 | 0.00 | 77 | 1015.6 |
| 20260503054215 | 37 | 293 | 0.0 | 0.0 | 0.00 | 0.05 | 0.00 | 78 | 1015.7 |
| 20260503053715 | 37 | 293 | 0.0 | 0.0 | 0.00 | 0.05 | 0.00 | 78 | 1015.6 |
| 20260503053215 | 37 | 293 | 0.0 | 0.0 | 0.00 | 0.05 | 0.00 | 78 | 1015.7 |
| 20260503052946 | 36 | 293 | 0.0 | 0.0 | 0.00 | 0.05 | 0.00 | 79 | 1015.7 |
| 20260503052215 | 36 | 293 | 0.0 | 0.0 | 0.00 | 0.05 | 0.00 | 80 | 1015.7 |
| 20260503051714 | 36 | 293 | 0.0 | 0.0 | 0.00 | 0.05 | 0.00 | 80 | 1015.7 |
| 20260503051215 | 36 | 293 | 0.0 | 0.0 | 0.00 | 0.05 | 0.00 | 80 | 1015.7 |
| 20260503050714 | 36 | 293 | 0.0 | 0.0 | 0.00 | 0.05 | 0.00 | 80 | 1015.8 |
| 20260503050151 | 36 | 293 | 0.0 | 0.0 | 0.00 | 0.05 | 0.00 | 81 | 1015.8 |
| 20260503045645 | 37 | 293 | 0.0 | 0.0 | 0.00 | 0.05 | 0.00 | 81 | 1015.9 |
| 20260503045145 | 36 | 293 | 0.0 | 0.0 | 0.00 | 0.05 | 0.00 | 80 | 1015.9 |
| 20260503044644 | 36 | 293 | 0.0 | 0.0 | 0.00 | 0.05 | 0.00 | 80 | 1015.9 |
| 20260503044144 | 36 | 293 | 0.0 | 0.0 | 0.00 | 0.05 | 0.00 | 79 | 1016.0 |
| 20260503043644 | 36 | 293 | 0.0 | 0.0 | 0.00 | 0.05 | 0.00 | 79 | 1016.0 |
| 20260503043144 | 37 | 293 | 0.0 | 0.0 | 0.00 | 0.05 | 0.00 | 80 | 1016.0 |
| 20260503042644 | 37 | 293 | 0.0 | 0.0 | 0.00 | 0.05 | 0.00 | 79 | 1016.0 |
| 20260503042157 | 37 | 293 | 0.0 | 0.0 | 0.00 | 0.05 | 0.00 | 78 | 1016.1 |
| 20260503041644 | 37 | 293 | 0.0 | 0.0 | 0.00 | 0.05 | 0.00 | 77 | 1016.0 |
| 20260503041144 | 37 | 293 | 0.0 | 0.0 | 0.00 | 0.05 | 0.00 | 76 | 1016.1 |
| 20260503040644 | 37 | 293 | 0.0 | 0.0 | 0.00 | 0.05 | 0.00 | 75 | 1016.0 |
| 20260503040144 | 37 | 293 | 0.0 | 0.0 | 0.00 | 0.05 | 0.00 | 75 | 1016.1 |
| 20260503035643 | 37 | 293 | 0.0 | 0.0 | 0.00 | 0.05 | 0.05 | 75 | 1016.1 |
| 20260503035414 | 37 | 293 | 0.0 | 0.0 | 0.00 | 0.05 | 0.05 | 76 | 1016.2 |
| 20260503034643 | 37 | 293 | 0.0 | 0.0 | 0.00 | 0.05 | 0.05 | 77 | 1016.2 |
| 20260503034143 | 37 | 293 | 0.0 | 0.0 | 0.00 | 0.05 | 0.05 | 76 | 1016.2 |
| 20260503033643 | 37 | 293 | 0.0 | 0.0 | 0.00 | 0.05 | 0.05 | 75 | 1016.1 |
| 20260503033143 | 37 | 293 | 0.0 | 0.0 | 0.00 | 0.05 | 0.05 | 74 | 1016.2 |
| 20260503032914 | 37 | 293 | 0.0 | 0.0 | 0.00 | 0.05 | 0.05 | 72 | 1016.1 |
| 20260503032143 | 37 | 293 | 0.0 | 0.0 | 0.00 | 0.05 | 0.05 | 72 | 1016.2 |
| 20260503031642 | 37 | 293 | 0.0 | 0.0 | 0.00 | 0.05 | 0.05 | 72 | 1016.3 |
| 20260503031155 | 37 | 293 | 0.0 | 0.0 | 0.00 | 0.05 | 0.05 | 72 | 1016.3 |
| 20260503030643 | 37 | 293 | 0.0 | 0.0 | 0.00 | 0.05 | 0.05 | 71 | 1016.2 |
| 20260503030143 | 37 | 293 | 0.0 | 0.0 | 0.00 | 0.05 | 0.05 | 73 | 1016.3 |
| 20260503025642 | 37 | 293 | 0.0 | 0.0 | 0.00 | 0.05 | 0.05 | 74 | 1016.4 |
| 20260503025142 | 37 | 293 | 0.0 | 0.0 | 0.00 | 0.05 | 0.05 | 74 | 1016.3 |
| 20260503024643 | 37 | 295 | 0.0 | 0.0 | 0.00 | 0.05 | 0.05 | 74 | 1016.4 |
| 20260503024143 | 37 | 295 | 0.0 | 0.0 | 0.00 | 0.05 | 0.05 | 74 | 1016.4 |
| 20260503023642 | 37 | 295 | 0.0 | 0.0 | 0.00 | 0.05 | 0.05 | 74 | 1016.4 |
| 20260503023142 | 37 | 295 | 0.0 | 0.0 | 0.00 | 0.05 | 0.05 | 75 | 1016.5 |
| 20260503022642 | 37 | 295 | 0.0 | 0.0 | 0.00 | 0.05 | 0.05 | 76 | 1016.5 |
| 20260503022142 | 37 | 295 | 0.0 | 0.0 | 0.00 | 0.05 | 0.05 | 75 | 1016.6 |
| 20260503021655 | 37 | 295 | 0.0 | 0.0 | 0.00 | 0.05 | 0.05 | 74 | 1016.6 |
| 20260503021142 | 38 | 295 | 0.0 | 0.0 | 0.00 | 0.05 | 0.05 | 74 | 1016.5 |
| 20260503020642 | 38 | 295 | 0.0 | 0.0 | 0.00 | 0.05 | 0.05 | 72 | 1016.5 |
| 20260503020143 | 38 | 295 | 0.0 | 0.0 | 0.00 | 0.05 | 0.05 | 70 | 1016.4 |
| 20260503015641 | 38 | 295 | 0.0 | 0.0 | 0.00 | 0.05 | 0.05 | 67 | 1016.5 |
| 20260503015141 | 39 | 295 | 0.0 | 0.0 | 0.00 | 0.05 | 0.05 | 67 | 1016.4 |
| 20260503014641 | 39 | 295 | 0.0 | 0.0 | 0.00 | 0.05 | 0.05 | 66 | 1016.5 |
| 20260503014142 | 39 | 295 | 0.0 | 0.0 | 0.00 | 0.05 | 0.05 | 66 | 1016.5 |
| 20260503013639 | 39 | 295 | 0.0 | 0.0 | 0.00 | 0.05 | 0.05 | 66 | 1016.4 |
| 20260503013136 | 40 | 295 | 0.0 | 0.0 | 0.00 | 0.05 | 0.05 | 65 | 1016.4 |
| 20260503012636 | 40 | 295 | 0.0 | 0.0 | 0.00 | 0.05 | 0.05 | 64 | 1016.4 |
| 20260503012407 | 40 | 295 | 0.0 | 0.0 | 0.00 | 0.05 | 0.05 | 63 | 1016.3 |
| 20260503011636 | 40 | 295 | 0.0 | 0.0 | 0.00 | 0.05 | 0.05 | 62 | 1016.4 |
| 20260503011136 | 40 | 295 | 0.0 | 0.0 | 0.00 | 0.05 | 0.05 | 62 | 1016.4 |
| 20260503010644 | 40 | 292 | 0.0 | 2.0 | 0.00 | 0.05 | 0.05 | 61 | 1016.3 |
| 20260503010637 | 40 | 295 | 0.0 | 0.0 | 0.00 | 0.05 | 0.05 | 61 | 1016.3 |